Weather History for KHOT - March, 2014

Change the Weather History Date:

Monday, March 10, 2014

  Actual Average Record
Temperature  
Mean Temperature 58 °F -  
Max Temperature 73 °F 63 °F 84 °F (1955)
Min Temperature 42 °F 41 °F 23 °F (1998)
Degree Days  
Heating Degree Days 8    
Growing Degree Days 8 (Base 50)    
Moisture  
Dew Point 42 °F    
Average Humidity 63    
Maximum Humidity 89    
Minimum Humidity 27    
Precipitation  
Precipitation 0.00 in - - ()
Sea Level Pressure  
Sea Level Pressure 30.04 in    
Wind  
Wind Speed 5 mph (WSW)    
Max Wind Speed 10 mph    
Max Gust Speed 18 mph    
Visibility 8 miles    
Events      
Averages and records for this station are not official NWS values.
T = Trace of Precipitation, MM = Missing Value Source: NWS Daily Summary

Daily Weather History Graph

Daily Weather History Graph

Search for Another Location

Airport or City:

Trip Planner

Search our weather history database for the weather conditions in past years. The results will help you decide how hot, cold, wet, or windy it might be!

Date:

Astronomy

Mar. 10, 2014 Rise Set
Actual Time 7:29 AM CDT 7:16 PM CDT
Civil Twilight 7:04 AM CDT 7:41 PM CDT
Nautical Twilight 6:35 AM CDT 8:10 PM CDT
Astronomical Twilight 6:06 AM CDT 8:39 PM CDT
Moon 2:10 PM CDT (3/10) 3:31 AM CDT (3/10)
Length of Visible Light 12h 36m
Length of Day
11h 46m
Waxing Gibbous, 70% of the Moon is Illuminated
Mar 10
Waxing Gibbous
Mar 16
Full
Mar 23
Last Quarter
Mar 30
New
Apr 7
First Quarter

Hourly Weather History & Observations

Time (CDT) Temp. Windchill Dew Point Humidity Pressure Visibility Wind Dir Wind Speed Gust Speed Precip Events Conditions
12:32 AM 50.0 °F - 44.6 °F 82% 30.18 in 7.0 mi WSW 5.8 mph - N/A   Partly Cloudy
12:53 AM 51.1 °F - 45.0 °F 80% 30.17 in 7.0 mi SW 5.8 mph - N/A   Mostly Cloudy
1:53 AM 51.1 °F - 45.0 °F 80% 30.16 in 8.0 mi Calm Calm - N/A   Overcast
2:53 AM 50.0 °F - 45.0 °F 83% 30.14 in 7.0 mi WSW 3.5 mph - N/A   Overcast
3:53 AM 50.0 °F - 44.1 °F 80% 30.12 in 9.0 mi West 5.8 mph - N/A   Overcast
4:50 AM 48.2 °F - 42.8 °F 82% 30.11 in 9.0 mi WSW 5.8 mph - N/A   Scattered Clouds
4:53 AM 48.0 °F - 43.0 °F 83% 30.11 in 9.0 mi West 4.6 mph - N/A   Partly Cloudy
5:53 AM 46.9 °F - 43.0 °F 86% 30.11 in 7.0 mi West 3.5 mph - N/A   Clear
6:53 AM 44.1 °F - 41.0 °F 89% 30.12 in 5.0 mi Calm Calm - N/A   Clear
7:41 AM 42.8 °F - 39.2 °F 87% 30.11 in 2.5 mi Calm Calm - N/A   Clear
7:53 AM 43.0 °F 41.3 °F 39.9 °F 89% 30.11 in 3.0 mi WNW 3.5 mph - N/A   Clear
8:53 AM 48.0 °F - 43.0 °F 83% 30.12 in 5.0 mi WNW 3.5 mph - N/A   Haze
9:53 AM 52.0 °F - 44.1 °F 74% 30.11 in 8.0 mi WNW 4.6 mph - N/A   Clear
10:53 AM 55.9 °F - 45.0 °F 67% 30.10 in 9.0 mi SW 5.8 mph - N/A   Clear
11:53 AM 61.0 °F - 44.1 °F 54% 30.09 in 10.0 mi WSW 8.1 mph - N/A   Clear
12:53 PM 64.9 °F - 44.1 °F 47% 30.05 in 10.0 mi SSW 6.9 mph - N/A   Clear
1:53 PM 69.1 °F - 42.1 °F 38% 30.01 in 10.0 mi WSW 10.4 mph 16.1 mph N/A   Clear
2:53 PM 71.1 °F - 39.9 °F 32% 29.97 in 10.0 mi WSW 10.4 mph - N/A   Clear
3:53 PM 72.0 °F - 39.9 °F 31% 29.93 in 10.0 mi SW 6.9 mph - N/A   Clear
4:53 PM 73.0 °F - 37.0 °F 27% 29.90 in 10.0 mi WSW 10.4 mph 18.4 mph N/A   Clear
5:53 PM 72.0 °F - 37.9 °F 29% 29.89 in 10.0 mi SSW 8.1 mph - N/A   Clear
6:53 PM 68.0 °F - 39.0 °F 35% 29.90 in 10.0 mi SSW 8.1 mph - N/A   Clear
7:53 PM 64.0 °F - 39.9 °F 41% 29.90 in 10.0 mi SW 4.6 mph - N/A   Clear
8:53 PM 61.0 °F - 39.9 °F 46% 29.91 in 10.0 mi SSW 3.5 mph - N/A   Clear
9:53 PM 59.0 °F - 42.1 °F 53% 29.91 in 10.0 mi SW 4.6 mph - N/A   Clear
10:53 PM 55.9 °F - 43.0 °F 62% 29.90 in 10.0 mi Calm Calm - N/A   Clear
11:53 PM 53.1 °F - 43.0 °F 69% 29.88 in 10.0 mi Calm Calm - N/A   Clear